This demonstration page uses our WeatherBlox Daily Observations layout. Learn more.

Left ArrowRight Arrow

Hourly Observations for June 1, 2018

Temp ( °F °C ) Dew Point ( °F °C ) Humidity (%) Winds ( mph kmh ) Pressure ( in mb ) Visibility ( mi km ) Precip ( " mm )
12:56 am 00:56 Clear 70 21.1 61 16.1 73 73 S 7 11 29.78 1009 10 16 0.00 0.00
1:56 am 01:56 Clear 69 20.6 61 16.1 76 76 S 8 13 29.78 1009 10 16 0.00 0.00
2:56 am 02:56 Clear 67 19.4 61 16.1 81 81 S 7 11 29.78 1009 10 16 0.00 0.00
3:56 am 03:56 Clear 68 20 61 16.1 78 78 S 9 15 29.78 1008 10 16 0.00 0.00
4:56 am 04:56 Clear 66 18.9 61 16.1 84 84 SSE 7 11 29.79 1009 10 16 0.00 0.00
5:56 am 05:56 Clear 66 18.9 62 16.7 87 87 SSE 7 11 29.78 1009 10 16 0.00 0.00
6:25 am 06:25 Mostly Sunny 66 19 63 17 88 88 S 10 17 29.80 1009 10 16 0.00 0.00
6:56 am 06:56 Sunny 67 19.4 64 17.8 91 91 SE 8 13 29.79 1009 10 16 0.00 0.00
7:21 am 07:21 Mostly Sunny 68 20 64 18 88 88 SE 8 13 29.80 1009 10 16 0.00 0.00
7:56 am 07:56 Mostly Sunny 71 21.7 65 18.3 81 81 S 8 13 29.80 1009 10 16 0.00 0.00
8:56 am 08:56 Sunny 76 24.4 69 20.6 79 79 S 14 22 29.79 1009 7 11 0.00 0.00
9:56 am 09:56 Mostly Sunny 81 27.2 68 20 65 65 SSE 22 35 29.77 1008 9 14 0.00 0.00
10:56 am 10:56 Sunny 83 28.3 68 20 61 61 SSE 24 39 29.76 1008 7 11 0.00 0.00
11:03 am 11:03 Hazy 82 28 68 20 62 62 SSE 25 41 29.71 1006 5 8 0.00 0.00
11:56 am 11:56 Mostly Sunny 86 30 67 19.4 53 53 SSE 26 43 29.73 1007 7 11 0.00 0.00
12:56 pm 12:56 Sunny 88 31.1 67 19.4 50 50 SE 24 39 29.70 1006 9 14 0.00 0.00
1:56 pm 13:56 Mostly Sunny 90 32.2 68 20 48 48 SSE 23 37 29.68 1005 10 16 0.00 0.00
2:56 pm 14:56 Mostly Sunny 91 32.8 70 21.1 50 50 SSE 22 35 29.69 1005 9 14 0.00 0.00
3:56 pm 15:56 Partly Cloudy 91 32.8 72 22.2 54 54 SSE 31 50 29.64 1004 9 14 0.00 0.00
4:56 pm 16:56 Partly Cloudy 90 32.2 72 22.2 56 56 S 24 39 29.64 1004 7 11 0.00 0.00
5:56 pm 17:56 Mostly Sunny 91 32.8 72 22.2 54 54 S 23 37 29.62 1003 8 13 0.00 0.00
6:56 pm 18:56 Mostly Sunny 89 31.7 71 21.7 55 55 S 25 41 29.60 1002 10 16 0.00 0.00
7:56 pm 19:56 Sunny 89 31.7 73 22.8 59 59 S 20 31 29.60 1002 10 16 0.00 0.00
8:56 pm 20:56 Sunny 85 29.4 73 22.8 68 68 S 14 22 29.58 1002 10 16 0.00 0.00
9:56 pm 21:56 Clear 82 27.8 73 22.8 74 74 SE 10 17 29.61 1003 10 16 0.00 0.00
10:49 pm 22:49 Clear with Nearby Thunderstorms 81 27 73 23 79 79 SSE 16 26 29.53 1000 10 16 0.00 0.00
10:56 pm 22:56 Clear with Nearby Thunderstorms 82 27.8 74 23.3 77 77 SSE 18 30 29.54 1001 10 16 0.00 0.00
11:30 pm 23:30 Cloudy with Thunderstorms 66 19 59 15 78 78 NNW 24 39 29.74 1007 5 8 0.03 0.76
11:56 pm 23:56 Cloudy with Thunderstorms 62 16.7 59 15 90 90 NE 16 26 29.72 1007 3 4 0.29 7.37

Powered by AerisWeather